Showing default

DUTHSAT-2, 64530

Orbit data source: Space-Track

DUTHSAT-2, 64530 is a payload satellite owned by DUTH (GR) in SSO that was launched on Mon, 23 Jun 2025 UTC via an FALCON 9 launch vehicle from the Air Force Western Test Range (AFWTR). Payload-class satellites include a variety of spacecraft equipped with specific instruments for various scientific and technological missions. These include communications satellites like Starlink; space stations such as the ISS; scientific satellites like the Hubble; Earth observation satellites from companies like Planet Labs, Umbra, and HawkEye 360; GPS; miniature CubeSats for education and research; and military/defense satellites.

Loading next visibility...
Identifier
64530, 2025-135C
Orbit
SSO
Country
Flag of GRGR / GREC
Related business
Manufacturer
DUTH
Mission
Operational Amateur Science
Bus & Motor
CUBESAT 6U, Unknown motor
Mass
10 kg wet, 10 kg dry
Launch date (UTC)
2025-06-23 (9 months ago)
Launch vehicle
FALCON 9
Launch site
Air Force Western Test Range (AFWTR)
Object type
Payload
Rocket body
Debris
Shape & HBR
Box, 0.1 m
Radar Cross Section
0.080 m², Medium (>0.1 m² and < 1m²)

Expand to show TLE details & history
Last TLE update: 22 hours ago

TLE from 22 hours ago
0 DUTHSAT-2
1 64530U 25135C   26072.31088237  .00015662  00000-0  64056-3 0  9997
2 64530  97.4493 188.5053 0005669 157.9351 202.2131 15.24415891 40312
Epoch: 2026-03-13T07:27Z
TLE epoch observation values (Epoch: 2026-03-13T07:27:40.236Z)
Latitude
-0.00009°
Longitude
-94.36058°
Altitude
499.242 km
Speed
7.613 km/s
True Right ascension
12h 34m 01s
True Declination
0° 00' 00"
Sunlit
Object was in full shadow at epoch
Visualization orbit readout
Latitude
Unknown
Longitude
Unknown
Altitude
Unknown
Speed
Unknown
Apparent Right ascension
Unknown
Apparent Declination
Unknown
Sunlit
N/A
Visualization observer readout
Local Sidereal Time
09:41:11
Azimuth
Unknown
Elevation
Unknown
Doppler factor
Unknown
Orbital elements
Apogee altitude
493.395 km
Perigee altitude
485.609 km
Semi-major axis
6,867.639 km
Eccentricity
0.00057
Inclination
97.4493°
RAAN
188.5053°
Arg. of periapsis
157.9351°
True anomaly
202.18856°
Mean anomaly
202.2131°
Eccentric anomaly
202.20083°
Mean motion
3.81357 °/min
Orbital period
94.4 mins
BSTAR
0.00064056
Loading maneuver chart data...
Computing Atmospheric mass density...
Loading historical data...
Loading historical data...
Loading historical data...
Loading historical data...
Loading historical data...
Loading historical data...
Loading historical data...

Documentation

Showing up to 5 results
|